Location: Newark
(33.6333°S, 78.8500°W)
Time: 04:50:14
(UTC+00:00)

Courier 1B - Pass Details

Date: 25 September 2019
Orbit: 962 x 1209 km, 28.3° (Epoch: 15 October)

Event Time Altitude Azimuth Distance (km) Brightness Sun altitude
Rises 03:20:57 0° 274° (W) 3,895 11.0 -47.5°
Enters shadow 03:22:56 - 282° (WNW) 3,336 10.5 -47.8°
Reaches altitude 10° 03:24:46 10° 292° (WNW) 2,883 - -48.0°
Maximum altitude 03:29:09 18° 331° (NNW) 2,309 - -48.6°
Drops below altitude 10° 03:33:24 10° 11° (N) 2,767 - -49.2°
Sets 03:36:58 0° 29° (NNE) 3,676 - -49.6°
